When you browse on this site, cookies collect data to enhance your experience and personalize the content and advertising you see.
Visit our Privacy Policy to learn more. By continuing to use the site, you agree to this use of cookies and data.
  • Em Portugal
  • Lista de países
  • Para 7 dias
  • Temperatura da água
  • Mapas de satélite
  • Mapa do tempo
  • Widgets de tempo
  • user-avatar
    Iniciar Sessão

    Previsão horária em Kornyhnovo

    Hoje, 18 Fevereiro, Segunda-feira

    Tempo Temperatura Precipitação Vento Pressão Humidade
    00:00 -4°C° 0 mm 3 m/s 759 mmHg 86%
    01:00 -4°C° 0 mm 2 m/s 759 mmHg 87%
    02:00 -5°C° 0 mm 2 m/s 759 mmHg 92%
    03:00 -5°C° 0 mm 2 m/s 760 mmHg 92%
    04:00 -4°C° 0 mm 1 m/s 760 mmHg 93%
    05:00 -4°C° 0 mm 1 m/s 761 mmHg 93%
    06:00 -4°C° 0 mm 1 m/s 761 mmHg 92%
    07:00 -4°C° 0 mm 1 m/s 761 mmHg 92%
    08:00 -4°C° 0 mm 1 m/s 762 mmHg 89%
    09:00 -3°C° 0 mm 1 m/s 762 mmHg 83%
    10:00 -2°C° 0 mm 1 m/s 762 mmHg 77%
    11:00 -2°C° 0 mm 0 m/s 762 mmHg 71%
    12:00 0°C° 0 mm 1 m/s 762 mmHg 69%
    13:00 0°C° 0 mm 1 m/s 762 mmHg 67%
    14:00 +1°C° 0 mm 1 m/s 761 mmHg 65%
    15:00 -1°C° 0 mm 2 m/s 761 mmHg 70%
    16:00 -2°C° 0 mm 2 m/s 760 mmHg 75%
    17:00 -3°C° 0 mm 2 m/s 760 mmHg 80%
    18:00 -3°C° 0 mm 2 m/s 759 mmHg 78%
    19:00 -4°C° 0 mm 3 m/s 759 mmHg 77%
    20:00 -4°C° 0 mm 3 m/s 759 mmHg 75%
    21:00 -4°C° 0 mm 4 m/s 758 mmHg 75%
    22:00 -4°C° 0 mm 4 m/s 758 mmHg 75%
    23:00 -3°C° 0 mm 4 m/s 757 mmHg 75%

    Amanhã, 19 Fevereiro, Terça-feira

    Tempo Temperatura Precipitação Vento Pressão Humidade
    00:00 -3°C° 0 mm 4 m/s 757 mmHg 77%
    01:00 -4°C° 0 mm 5 m/s 756 mmHg 80%
    02:00 -4°C° 0 mm 5 m/s 755 mmHg 82%
    03:00 -4°C° 0 mm 5 m/s 755 mmHg 84%
    04:00 -2°C° 0 mm 5 m/s 754 mmHg 86%
    05:00 -2°C° 0 mm 5 m/s 754 mmHg 88%
    06:00 -2°C° 0 mm 5 m/s 753 mmHg 89%
    07:00 -1°C° 0 mm 4 m/s 753 mmHg 90%
    08:00 -1°C° 0 mm 4 m/s 752 mmHg 91%
    09:00 -1°C° 0 mm 4 m/s 752 mmHg 90%
    10:00 0°C° 0 mm 4 m/s 751 mmHg 90%
    11:00 0°C° 0 mm 4 m/s 751 mmHg 90%
    12:00 0°C° 0 mm 4 m/s 750 mmHg 90%
    13:00 0°C° 0 mm 5 m/s 749 mmHg 90%
    14:00 +1°C° 0 mm 5 m/s 749 mmHg 89%
    15:00 +1°C° 0 mm 5 m/s 748 mmHg 89%
    16:00 +1°C° 0 mm 5 m/s 747 mmHg 89%
    17:00 +1°C° 0 mm 4 m/s 746 mmHg 89%
    18:00 +1°C° 0 mm 4 m/s 746 mmHg 89%
    19:00 +1°C° 0 mm 5 m/s 745 mmHg 89%
    20:00 +1°C° 0 mm 5 m/s 744 mmHg 90%
    21:00 +1°C° 0.3 mm 5 m/s 744 mmHg 89%
    22:00 +1°C° 0.3 mm 5 m/s 743 mmHg 89%
    23:00 0°C° 0.3 mm 5 m/s 743 mmHg 89%

    Depois de amanhã, 20 Fevereiro, Quarta-feira

    Tempo Temperatura Precipitação Vento Pressão Humidade
    00:00 +1°C° 0.2 mm 4 m/s 743 mmHg 90%
    01:00 +1°C° 0.2 mm 4 m/s 743 mmHg 92%
    02:00 +1°C° 0.2 mm 4 m/s 743 mmHg 93%
    03:00 +1°C° 0.1 mm 4 m/s 742 mmHg 92%
    04:00 +1°C° 0.1 mm 4 m/s 742 mmHg 92%
    05:00 +1°C° 0.1 mm 4 m/s 742 mmHg 91%
    06:00 +1°C° 0.2 mm 4 m/s 742 mmHg 90%
    07:00 +1°C° 0.2 mm 4 m/s 741 mmHg 90%
    08:00 +1°C° 0.2 mm 4 m/s 741 mmHg 89%
    09:00 +1°C° 0.1 mm 4 m/s 741 mmHg 87%
    10:00 +1°C° 0.1 mm 5 m/s 741 mmHg 85%
    11:00 +1°C° 0.1 mm 5 m/s 741 mmHg 83%
    12:00 +1°C° 0.3 mm 5 m/s 741 mmHg 83%
    13:00 +1°C° 0.3 mm 5 m/s 740 mmHg 83%
    14:00 +1°C° 0.3 mm 5 m/s 740 mmHg 84%
    15:00 0°C° 0.4 mm 5 m/s 740 mmHg 83%
    16:00 -1°C° 0.4 mm 6 m/s 740 mmHg 81%
    17:00 -1°C° 0.4 mm 6 m/s 741 mmHg 80%
    18:00 -2°C° 0.2 mm 6 m/s 741 mmHg 82%
    19:00 -3°C° 0.2 mm 6 m/s 742 mmHg 84%
    20:00 -3°C° 0.2 mm 6 m/s 743 mmHg 85%
    21:00 -4°C° 0.1 mm 6 m/s 744 mmHg 83%
    22:00 -4°C° 0.1 mm 6 m/s 744 mmHg 80%
    23:00 -5°C° 0.1 mm 6 m/s 745 mmHg 78%

    21 Fevereiro, Quinta-feira

    Tempo Temperatura Precipitação Vento Pressão Humidade
    00:00 -5°C° 0 mm 6 m/s 746 mmHg 77%
    01:00 -5°C° 0 mm 6 m/s 747 mmHg 77%
    02:00 -5°C° 0 mm 6 m/s 747 mmHg 76%
    03:00 -6°C° 0.1 mm 6 m/s 748 mmHg 75%
    04:00 -6°C° 0.1 mm 6 m/s 749 mmHg 73%
    05:00 -6°C° 0.1 mm 6 m/s 749 mmHg 72%
    06:00 -8°C° 0 mm 6 m/s 750 mmHg 71%
    07:00 -8°C° 0 mm 6 m/s 751 mmHg 70%
    08:00 -9°C° 0 mm 6 m/s 752 mmHg 69%
    09:00 -8°C° 0 mm 6 m/s 753 mmHg 68%
    10:00 -8°C° 0 mm 6 m/s 753 mmHg 66%
    11:00 -7°C° 0 mm 5 m/s 754 mmHg 65%
    12:00 -7°C° 0 mm 5 m/s 755 mmHg 64%
    13:00 -7°C° 0 mm 5 m/s 756 mmHg 63%
    14:00 -7°C° 0 mm 5 m/s 756 mmHg 62%
    15:00 -7°C° 0 mm 5 m/s 757 mmHg 63%
    16:00 -7°C° 0 mm 4 m/s 758 mmHg 64%
    17:00 -8°C° 0 mm 4 m/s 758 mmHg 65%
    18:00 -8°C° 0 mm 4 m/s 759 mmHg 66%
    19:00 -9°C° 0 mm 4 m/s 760 mmHg 67%
    20:00 -9°C° 0 mm 4 m/s 761 mmHg 68%
    21:00 -10°C° 0 mm 4 m/s 762 mmHg 69%
    22:00 -9°C° 0 mm 3 m/s 763 mmHg 71%
    23:00 -9°C° 0 mm 3 m/s 764 mmHg 72%

    22 Fevereiro, Sexta-feira

    Tempo Temperatura Precipitação Vento Pressão Humidade
    00:00 -9°C° 0 mm 3 m/s 764 mmHg 74%
    01:00 -10°C° 0 mm 3 m/s 765 mmHg 75%
    02:00 -10°C° 0 mm 3 m/s 766 mmHg 77%
    03:00 -10°C° 0 mm 3 m/s 766 mmHg 76%
    04:00 -10°C° 0 mm 3 m/s 767 mmHg 75%
    05:00 -10°C° 0 mm 3 m/s 767 mmHg 74%
    06:00 -10°C° 0 mm 3 m/s 768 mmHg 72%
    07:00 -10°C° 0 mm 3 m/s 768 mmHg 70%
    08:00 -10°C° 0 mm 4 m/s 769 mmHg 69%
    09:00 -9°C° 0 mm 4 m/s 769 mmHg 63%
    10:00 -8°C° 0 mm 4 m/s 770 mmHg 57%
    11:00 -7°C° 0 mm 5 m/s 770 mmHg 52%
    12:00 -7°C° 0 mm 5 m/s 771 mmHg 52%
    13:00 -6°C° 0 mm 5 m/s 771 mmHg 52%
    14:00 -5°C° 0 mm 4 m/s 771 mmHg 52%
    15:00 -5°C° 0 mm 4 m/s 771 mmHg 57%
    16:00 -7°C° 0 mm 4 m/s 771 mmHg 61%
    17:00 -6°C° 0 mm 3 m/s 772 mmHg 65%
    18:00 -7°C° 0 mm 3 m/s 772 mmHg 69%
    19:00 -8°C° 0 mm 3 m/s 772 mmHg 72%
    20:00 -7°C° 0 mm 2 m/s 772 mmHg 76%
    21:00 -7°C° 0 mm 2 m/s 772 mmHg 78%
    22:00 -7°C° 0 mm 1 m/s 772 mmHg 81%
    23:00 -7°C° 0 mm 1 m/s 772 mmHg 84%

    23 Fevereiro, Sábado

    Tempo Temperatura Precipitação Vento Pressão Humidade
    00:00 -7°C° 0 mm 1 m/s 772 mmHg 83%
    01:00 -7°C° 0 mm 1 m/s 772 mmHg 83%
    02:00 -7°C° 0 mm 1 m/s 771 mmHg 82%
    03:00 -8°C° 0 mm 2 m/s 771 mmHg 78%
    04:00 -7°C° 0 mm 2 m/s 770 mmHg 74%
    05:00 -8°C° 0 mm 3 m/s 769 mmHg 70%
    06:00 -8°C° 0.4 mm 3 m/s 769 mmHg 77%
    07:00 -8°C° 0.4 mm 3 m/s 768 mmHg 84%
    08:00 -8°C° 0.4 mm 3 m/s 767 mmHg 92%
    09:00 -8°C° 0.2 mm 3 m/s 766 mmHg 90%
    10:00 -8°C° 0.2 mm 4 m/s 765 mmHg 88%
    11:00 -8°C° 0.2 mm 4 m/s 764 mmHg 86%
    12:00 -7°C° 0.1 mm 4 m/s 764 mmHg 86%
    13:00 -7°C° 0.1 mm 4 m/s 764 mmHg 87%
    14:00 -5°C° 0.1 mm 3 m/s 763 mmHg 87%
    15:00 -5°C° 0.1 mm 3 m/s 763 mmHg 89%
    16:00 -3°C° 0.1 mm 2 m/s 763 mmHg 91%
    17:00 -3°C° 0.1 mm 2 m/s 763 mmHg 93%
    18:00 -2°C° 0 mm 2 m/s 763 mmHg 94%
    19:00 0°C° 0 mm 1 m/s 763 mmHg 96%
    20:00 0°C° 0 mm 1 m/s 763 mmHg 97%
    21:00 +1°C° 0 mm 1 m/s 763 mmHg 97%
    22:00 -1°C° 0 mm 2 m/s 763 mmHg 97%
    23:00 -1°C° 0 mm 2 m/s 763 mmHg 97%
    Mostrar mais